GW4444 Weather Reports


Display with metric or nautical units.
time (UTC)temp
F
wind
direction
speed
MPH
gust
MPH
rain 1hr
in
rain 24hr
in
rain mn
in
humidity
%
barometer
mb
20260508013016 72 135 5.0 9.0 0.00 0.00 0.00 11 1012.6
20260508011516 73 135 6.0 9.0 0.00 0.00 0.00 11 1012.5
20260508010016 74 113 4.0 8.0 0.00 0.00 0.00 11 1012.8
20260508004516 74 113 4.0 8.0 0.00 0.00 0.00 10 1012.5
20260508003016 74 90 4.0 10.0 0.00 0.00 0.00 10 1012.6
20260508001556 75 135 4.0 9.0 0.00 0.00 0.00 11 1013.0
20260508000016 75 90 4.0 9.0 0.00 0.00 0.00 10 1013.4
20260507234516 75 0 4.0 10.0 0.00 0.00 0.00 11 1013.5
20260507233016 75 338 4.0 9.0 0.00 0.00 0.00 8 1013.6
20260507231516 75 45 3.0 10.0 0.00 0.00 0.00 8 1013.7
20260507230016 74 338 5.0 11.0 0.00 0.00 0.00 9 1013.9
20260507224516 74 45 5.0 13.0 0.00 0.00 0.00 9 1013.7
20260507223036 74 23 6.0 14.0 0.00 0.00 0.00 9 1013.9
20260507221516 73 0 7.0 15.0 0.00 0.00 0.00 9 1014.9
20260507220036 73 90 6.0 12.0 0.00 0.00 0.00 9 1015.1
20260507214616 73 45 7.0 15.0 0.00 0.00 0.00 10 1014.4
20260507213016 72 0 5.0 13.0 0.00 0.00 0.00 9 1014.8
20260507211516 71 293 7.0 13.0 0.00 0.00 0.00 11 1015.5
20260507210016 71 338 6.0 13.0 0.00 0.00 0.00 11 1015.8
20260507204536 70 270 5.0 12.0 0.00 0.00 0.00 13 1016.2
20260507203015 69 315 6.0 12.0 0.00 0.00 0.00 12 1016.4
20260507201516 69 315 5.0 13.0 0.00 0.00 0.00 12 1016.6
20260507200016 68 0 6.0 13.0 0.00 0.00 0.00 14 1016.8
20260507194516 68 45 7.0 14.0 0.00 0.00 0.00 16 1017.7
20260507193016 66 0 7.0 16.0 0.00 0.00 0.00 17 1017.7
20260507191518 66 0 7.0 14.0 0.00 0.00 0.00 17 1018.1
20260507190015 65 0 9.0 16.0 0.00 0.00 0.00 18 1017.9
20260507184518 65 338 7.0 14.0 0.00 0.00 0.00 19 1018.2
20260507183017 64 0 8.0 14.0 0.00 0.00 0.00 20 1018.5
20260507181537 63 338 8.0 16.0 0.00 0.00 0.00 22 1019.1
20260507180017 63 315 8.0 17.0 0.00 0.00 0.00 23 1018.9
20260507174517 63 0 7.0 14.0 0.00 0.00 0.00 24 1019.2
20260507173017 61 0 7.0 12.0 0.00 0.00 0.00 25 1019.5
20260507171517 60 315 7.0 15.0 0.00 0.00 0.00 27 1019.3
20260507170017 59 338 7.0 13.0 0.00 0.00 0.00 26 1019.0
20260507164517 59 0 7.0 14.0 0.00 0.00 0.00 32 1019.3
20260507163017 57 0 7.0 13.0 0.00 0.00 0.00 36 1019.2
20260507161617 57 0 9.0 16.0 0.00 0.00 0.00 37 1019.7
20260507160017 56 0 10.0 17.0 0.00 0.00 0.00 40 1019.6
20260507154517 54 338 9.0 15.0 0.00 0.00 0.00 42 1020.0
20260507153017 54 0 9.0 13.0 0.00 0.00 0.00 44 1020.1
20260507151517 51 338 7.0 13.0 0.00 0.00 0.00 47 1019.9
20260507150017 50 338 7.0 11.0 0.00 0.00 0.00 47 1019.7
20260507144557 49 338 7.0 11.0 0.00 0.00 0.00 46 1019.8
20260507143037 48 338 7.0 11.0 0.00 0.00 0.00 46 1020.0
20260507141517 47 315 3.0 8.0 0.00 0.00 0.00 45 1019.9
20260507140017 46 338 2.0 4.0 0.00 0.00 0.00 43 1019.9
20260507134537 44 338 3.0 5.0 0.00 0.00 0.00 42 1019.8
20260507133017 43 338 4.0 8.0 0.00 0.00 0.00 41 1019.2
20260507131517 43 0 6.0 9.0 0.00 0.00 0.00 42 1019.7
20260507130017 42 0 7.0 10.0 0.00 0.00 0.00 47 1019.2
20260507124516 41 23 9.0 13.0 0.00 0.00 0.00 51 1018.9
20260507123017 40 23 6.0 10.0 0.00 0.00 0.00 50 1018.5
20260507121517 41 0 4.0 6.0 0.00 0.00 0.00 46 1019.5
20260507120016 43 90 3.0 6.0 0.00 0.00 0.00 46 1020.0
20260507114517 43 113 3.0 6.0 0.00 0.00 0.00 49 1019.7
20260507113016 43 23 4.0 5.0 0.00 0.00 0.00 45 1019.6
20260507111517 45 23 3.0 5.0 0.00 0.00 0.00 43 1019.7
20260507110017 44 68 2.0 4.0 0.00 0.00 0.00 54 1019.8
20260507104517 42 68 2.0 5.0 0.00 0.00 0.00 55 1019.7
20260507103016 42 23 3.0 5.0 0.00 0.00 0.00 49 1019.7
20260507101517 45 0 4.0 6.0 0.00 0.00 0.00 44 1019.9
20260507100037 48 0 4.0 9.0 0.00 0.00 0.00 39 1020.5
20260507094516 43 338 3.0 5.0 0.00 0.00 0.00 47 1019.4
20260507093016 43 338 2.0 4.0 0.00 0.00 0.00 50 1019.2
20260507091517 46 338 4.0 5.0 0.00 0.00 0.00 50 1019.4
20260507090017 45 338 4.0 7.0 0.00 0.00 0.00 51 1019.2
20260507084557 46 338 4.0 5.0 0.00 0.00 0.00 52 1018.8
20260507083036 47 338 3.0 4.0 0.00 0.00 0.00 51 1019.1
20260507081516 48 338 3.0 4.0 0.00 0.00 0.00 49 1019.1
20260507080016 49 338 2.0 3.0 0.00 0.00 0.00 49 1019.5
20260507074536 51 338 4.0 5.0 0.00 0.00 0.00 47 1019.1
20260507073016 52 338 2.0 4.0 0.00 0.00 0.00 47 1019.4
20260507071536 51 338 2.0 4.0 0.00 0.00 0.00 48 1019.4
20260507070036 52 338 1.0 4.0 0.00 0.00 0.00 47 1019.3
20260507064516 52 338 3.0 5.0 0.00 0.00 0.00 46 1019.2
20260507063017 53 338 4.0 7.0 0.00 0.00 0.00 45 1019.0
20260507061516 55 0 5.0 8.0 0.00 0.00 0.00 43 1018.9
20260507060016 55 23 5.0 6.0 0.00 0.00 0.00 43 1018.8
20260507054516 56 90 3.0 4.0 0.00 0.00 0.00 44 1018.4
20260507053016 55 90 4.0 7.0 0.00 0.00 0.00 44 1018.2
20260507051516 55 23 4.0 7.0 0.00 0.00 0.00 44 1018.1
20260507050016 54 23 3.0 5.0 0.00 0.00 0.00 46 1017.6
20260507044516 54 23 4.0 6.0 0.00 0.00 0.00 45 1017.3
20260507043036 54 23 5.0 6.0 0.00 0.00 0.00 44 1017.0
20260507041516 55 23 6.0 9.0 0.00 0.00 0.00 43 1016.4
20260507040016 56 23 8.0 10.0 0.00 0.00 0.00 42 1016.5
20260507034516 57 23 8.0 12.0 0.00 0.00 0.00 41 1016.0
20260507033016 58 23 10.0 14.0 0.00 0.00 0.00 39 1015.8
20260507031516 59 45 9.0 15.0 0.00 0.00 0.00 38 1015.5
20260507030036 59 45 8.0 11.0 0.00 0.00 0.00 37 1015.4
20260507024516 60 23 10.0 14.0 0.00 0.00 0.00 36 1015.2
20260507023016 60 23 10.0 15.0 0.00 0.00 0.00 36 1014.6
20260507021515 61 23 13.0 20.0 0.00 0.00 0.00 37 1014.4
20260507020015 62 23 17.0 27.0 0.00 0.00 0.00 36 1014.1
20260507014515 64 0 16.0 25.0 0.00 0.00 0.00 33 1013.7